SHIJIAN-6 02A (SJ-6 02A)

Last updated on Thu Oct 30 2025 00:03:36 GMT+0000 (Coordinated Universal Time)

1 29505U 06046A 25302.50524727 .00008712 00000+0 49153-3 0 9993 2 29505 97.6691 336.9753 0002719 185.4783 174.6419 15.13398996 37334
UTC large
Height (km)
Speed (km/s)
/
Latitude / Longitude
Inclination (degrees)
Orbital Period (minutes)
Azimuth
Elevation
Range (km)
Doppler Factor

Next 0 passes for location: London (51.5072 / 0.1276)

Sorry there are no passes over London.